"2016-07-12 00:00:00",1801369,3.21,177.9,6,0.739,24.96,110.6611,26.59,27.62,13.76,0,111.5,12.97,27.44,139.9
"2016-07-12 00:00:30",1801370,4.439,172.4,4.81,0.243,25.02,110.6235,26.5,27.6,13.96,0,111.5,12.97,27.34,134.4
"2016-07-12 00:01:00",1801371,3.684,171.8,6.182,0.365,25.05,110.5823,26.39,27.51,13.76,0,111.5,12.97,27.24,133.8
"2016-07-12 00:01:30",1801372,3.878,183.7,3.462,0.196,25.08,110.562,26.34,27.44,13.79,0,111.5,12.97,27.18,145.7
"2016-07-12 00:02:00",1801373,3.071,166.3,11.8,0.335,24.87,110.5597,26.33,27.41,13.91,0,111.5,12.97,27.18,128.3
"2016-07-12 00:02:30",1801374,3.09,153.8,16.52,0.774,24.78,110.5462,26.3,27.36,14.15,0,111.5,12.96,27.14,115.8
"2016-07-12 00:03:00",1801375,2.145,136.3,7.123,0.478,24.82,110.531,26.26,27.32,14.01,0,111.5,12.96,27.10,98.3
"2016-07-12 00:03:30",1801376,4.206,151.5,5.313,0.784,25.01,110.5316,26.26,27.3,13.92,0,111.5,12.96,27.10,113.5
"2016-07-12 00:04:00",1801377,5.789,152.1,5.714,0.409,24.67,110.5308,26.26,27.28,14.04,0,111.5,12.96,27.10,114.1
"2016-07-12 00:04:30",1801378,6.682,163.8,2.813,0.295,24.74,110.5151,26.22,27.27,14.37,0,111.5,12.96,27.06,125.8
"2016-07-12 00:05:00",1801379,6.724,170.4,3.114,0.386,24.79,110.4988,26.18,27.27,14.39,0,111.5,12.96,27.02,132.4
"2016-07-12 00:05:30",1801380,6.913,164.3,1.21,0.186,24.83,110.496,26.17,27.24,14.5,0,111.5,12.96,27.01,126.3
"2016-07-12 00:06:00",1801381,6.491,166.7,2.523,0.243,24.86,110.4733,26.11,27.23,14.45,0,111.5,12.96,26.95,128.7
"2016-07-12 00:06:30",1801382,6.426,168.1,1.545,0.297,24.89,110.4643,26.09,27.2,14.44,0,111.5,12.97,26.93,130.1
"2016-07-12 00:07:00",1801383,6.326,164.9,3.477,0.266,24.94,110.4439,26.04,27.16,14.41,0,111.5,12.96,26.88,126.9
"2016-07-12 00:07:30",1801384,5.977,166.6,3.938,0.247,24.95,110.4341,26.01,27.14,14.43,0,111.5,12.97,26.85,128.6
"2016-07-12 00:08:00",1801385,5.882,162,2.719,0.21,24.92,110.4251,25.99,27.11,14.47,0,111.5,12.97,26.83,124.0
"2016-07-12 00:08:30",1801386,5.826,158.6,2.778,0.169,24.93,110.4092,25.95,27.09,14.43,0,111.4,12.97,26.79,120.6
"2016-07-12 00:09:00",1801387,5.907,162.6,1.594,0.315,24.96,110.4137,25.96,27.05,14.43,0,111.4,12.97,26.80,124.6
"2016-07-12 00:09:30",1801388,6.102,159.5,2.458,0.101,24.76,110.3965,25.91,27.02,14.44,0,111.4,12.98,26.76,121.5
"2016-07-12 00:10:00",1801389,5.889,157.2,1.248,0.196,24.47,110.3912,25.9,26.99,14.47,0,111.4,12.98,26.74,119.2
"2016-07-12 00:10:30",1801390,5.836,154.9,2.35,0.153,24.32,110.3953,25.91,26.98,14.48,0,111.4,12.98,26.75,116.9
"2016-07-12 00:11:00",1801391,5.63,160.3,2.164,0.162,24.18,110.3924,25.9,26.97,14.51,0,111.4,12.98,26.75,122.3
"2016-07-12 00:11:30",1801392,6.621,161.3,4.98,0.227,24.11,110.3817,25.88,26.95,14.72,0,111.4,12.98,26.72,123.3
"2016-07-12 00:12:00",1801393,6.729,163.3,2.706,0.179,24.1,110.3764,25.86,26.93,15.07,0,111.4,12.98,26.70,125.3
"2016-07-12 00:12:30",1801394,7.417,164.7,2.273,0.467,24.11,110.3753,25.86,26.92,14.81,0,111.4,12.98,26.70,126.7
"2016-07-12 00:13:00",1801395,7.27,164.9,1.782,0.242,24.11,110.3744,25.86,26.91,14.88,0,111.4,12.98,26.70,126.9
"2016-07-12 00:13:30",1801396,7.121,160.3,1.362,0.18,24.07,110.375,25.86,26.91,14.89,0,111.4,12.98,26.70,122.3
"2016-07-12 00:14:00",1801397,7.011,161.8,1.906,0.404,24.03,110.377,25.86,26.9,15.12,0,111.4,12.99,26.71,123.8
"2016-07-12 00:14:30",1801398,6.883,167.3,2.259,0.237,24.12,110.3806,25.87,26.89,15.09,0,111.4,12.98,26.71,129.3
"2016-07-12 00:15:00",1801399,6.866,169.6,2.425,0.32,24.11,110.3834,25.88,26.89,14.98,0,111.4,12.99,26.72,131.6
"2016-07-12 00:15:30",1801400,7.098,166.8,1.402,0.234,24.12,110.3935,25.91,26.89,14.74,0,111.4,12.98,26.75,128.8
"2016-07-12 00:16:00",1801401,6.472,168.3,1.541,0.295,24.16,110.3988,25.92,26.88,14.63,0,111.4,12.98,26.76,130.3
"2016-07-12 00:16:30",1801402,6.723,168.8,1.462,0.131,24.08,110.4003,25.92,26.9,14.54,0,111.4,12.98,26.77,130.8
"2016-07-12 00:17:00",1801403,6.602,169.6,1.461,0.179,24.09,110.4005,25.92,26.91,14.51,0,111.4,12.98,26.77,131.6
"2016-07-12 00:17:30",1801404,6.573,171.3,1.564,0.226,24.09,110.4005,25.92,26.9,14.53,0,111.4,12.98,26.77,133.3
"2016-07-12 00:18:00",1801405,6.565,174.6,1.847,0.141,24.07,110.4005,25.92,26.91,14.53,0,111.4,12.99,26.77,136.6
"2016-07-12 00:18:30",1801406,6.537,169.1,2.345,0.459,24.2,110.4005,25.92,26.9,14.45,0,111.4,12.98,26.77,131.1
"2016-07-12 00:19:00",1801407,7.221,169.2,1.037,0.237,24.18,110.4005,25.92,26.92,14.49,0,111.4,12.98,26.77,131.2
"2016-07-12 00:19:30",1801408,6.85,166.5,1.771,0.238,24.19,110.4005,25.92,26.91,14.54,0,111.4,12.98,26.77,128.5
"2016-07-12 00:20:00",1801409,6.848,164.8,2.067,0.329,24.14,110.4005,25.92,26.92,14.86,0,111.4,12.98,26.77,126.8
"2016-07-12 00:20:30",1801410,6.944,164.5,1.574,0.341,24.17,110.4005,25.92,26.92,14.77,0,111.4,12.98,26.77,126.5
"2016-07-12 00:21:00",1801411,6.583,165.8,1.852,0.376,24.18,110.4005,25.92,26.93,15.05,0,111.4,12.98,26.77,127.8
"2016-07-12 00:21:30",1801412,6.635,164.1,1.9,0.205,24.19,110.4008,25.92,26.93,15.09,0,111.4,12.98,26.77,126.1
"2016-07-12 00:22:00",1801413,6.593,167.9,1.386,0.155,24.25,110.4027,25.93,26.93,14.93,0,111.4,12.98,26.77,129.9
"2016-07-12 00:22:30",1801414,6.921,162.7,5.205,0.289,24.25,110.4046,25.93,26.94,15.13,0,111.4,12.98,26.78,124.7
"2016-07-12 00:23:00",1801415,6.2,160.7,3.911,0.337,24.18,110.408,25.94,26.95,14.86,0,111.4,12.98,26.79,122.7
"2016-07-12 00:23:30",1801416,6.538,163.7,2.669,0.17,24.25,110.4126,25.95,26.94,15.18,0,111.4,12.98,26.80,125.7
"2016-07-12 00:24:00",1801417,6.367,168.7,3.198,0.375,24.17,110.4163,25.96,26.94,14.39,0,111.4,12.98,26.81,130.7
"2016-07-12 00:24:30",1801418,6.251,167.9,3.886,0.392,24.26,110.42,25.97,26.94,14.22,0,111.4,12.98,26.82,129.9
"2016-07-12 00:25:00",1801419,6.49,168.2,4.331,0.224,24.11,110.4222,25.98,26.94,14.47,0,111.4,12.98,26.82,130.2
"2016-07-12 00:25:30",1801420,5.865,161.9,5.372,0.293,24.16,110.4243,25.98,26.95,14.47,0,111.4,12.98,26.83,123.9
"2016-07-12 00:26:00",1801421,4.618,158.1,12.13,0.568,24.09,110.4318,26,26.97,14.3,0,111.4,12.98,26.85,120.1
"2016-07-12 00:26:30",1801422,4.07,156.5,9.18,0.645,24.17,110.4355,26.01,26.97,14.3,0,111.4,12.98,26.86,118.5
"2016-07-12 00:27:00",1801423,5.881,166.4,1.883,0.351,24.07,110.446,26.04,26.98,14.23,0,111.4,12.98,26.88,128.4
"2016-07-12 00:27:30",1801424,6.702,164.9,2.224,0.487,24.12,110.4583,26.07,26.99,14.63,0,111.4,12.99,26.92,126.9
"2016-07-12 00:28:00",1801425,6.395,158.7,2.043,0.299,24.19,110.4615,26.08,26.99,14.77,0,111.4,12.99,26.92,120.7
"2016-07-12 00:28:30",1801426,5.375,151.1,7.57,0.368,24.21,110.4621,26.08,27,14.15,0,111.4,12.98,26.92,113.1
"2016-07-12 00:29:00",1801427,6.219,166.6,3.259,0.237,24.15,110.4615,26.08,27,14.31,0,111.4,12.99,26.92,128.6
"2016-07-12 00:29:30",1801428,5.849,158.9,3.852,0.457,24.27,110.4618,26.08,27,14.06,0,111.4,12.99,26.92,120.9
"2016-07-12 00:30:00",1801429,6.165,163.7,3.777,0.257,24.14,110.4621,26.08,27.01,14.27,0,111.4,12.99,26.92,125.7
"2016-07-12 00:30:30",1801430,6.006,165.2,5.143,0.261,24.17,110.4649,26.09,27.02,14.27,0,111.4,12.99,26.93,127.2
"2016-07-12 00:31:00",1801431,6.508,168.9,2.774,0.308,24.24,110.468,26.1,27.05,14.89,0,111.4,12.99,26.94,130.9
"2016-07-12 00:31:30",1801432,6.246,171.8,1.797,0.283,24.33,110.4719,26.11,27.07,15.25,0,111.4,12.98,26.95,133.8
"2016-07-12 00:32:00",1801433,6.488,173.4,2.298,0.2,24.3,110.4758,26.12,27.07,14.94,0,111.4,12.99,26.96,135.4
"2016-07-12 00:32:30",1801434,5.741,170.1,6.398,0.368,24.24,110.4778,26.12,27.07,14.63,0,111.4,12.99,26.97,132.1
"2016-07-12 00:33:00",1801435,5.794,159.4,1.634,0.128,24.12,110.4773,26.12,27.07,14.58,0,111.4,12.99,26.96,121.4
"2016-07-12 00:33:30",1801436,5.763,162.3,1.299,0.27,24.08,110.4773,26.12,27.08,14.48,0,111.4,12.99,26.96,124.3
"2016-07-12 00:34:00",1801437,6.248,161.4,1.779,0.187,24.11,110.4748,26.11,27.09,14.49,0,111.4,12.99,26.96,123.4
"2016-07-12 00:34:30",1801438,6.19,157.8,1.74,0.228,24.08,110.4733,26.11,27.09,14.51,0,111.4,12.99,26.95,119.8
"2016-07-12 00:35:00",1801439,6.325,160.2,4.622,0.158,24.11,110.469,26.1,27.1,14.49,0,111.4,12.99,26.94,122.2
"2016-07-12 00:35:30",1801440,5.659,166.9,3.737,0.214,24.21,110.4688,26.1,27.09,14.53,0,111.4,12.98,26.94,128.9
"2016-07-12 00:36:00",1801441,5.65,160,2.514,0.142,24.2,110.4674,26.1,27.08,14.52,0,111.4,12.99,26.94,122.0
"2016-07-12 00:36:30",1801442,5.238,164.9,4.632,0.184,24.44,110.4686,26.1,27.08,14.5,0,111.4,12.99,26.94,126.9
"2016-07-12 00:37:00",1801443,5.219,170.2,3.748,0.237,24.57,110.4705,26.1,27.08,14.48,0,111.4,12.98,26.95,132.2
"2016-07-12 00:37:30",1801444,5.457,175.5,2.309,0.284,24.59,110.4711,26.11,27.07,14.47,0,111.4,12.98,26.95,137.5
"2016-07-12 00:38:00",1801445,4.834,165.4,3.596,0.333,24.73,110.4697,26.1,27.07,14.46,0,111.4,12.98,26.94,127.4
"2016-07-12 00:38:30",1801446,5.127,162.8,2.079,0.161,24.74,110.4529,26.06,27.06,14.44,0,111.4,12.98,26.90,124.8
"2016-07-12 00:39:00",1801447,5.058,162,1.838,0.313,24.68,110.4422,26.03,27.07,14.44,0,111.4,12.98,26.87,124.0
"2016-07-12 00:39:30",1801448,4.904,159,5.068,0.146,24.72,110.438,26.02,27.05,14.44,0,111.4,12.98,26.86,121.0
"2016-07-12 00:40:00",1801449,5.074,154.2,2.459,0.138,24.51,110.4377,26.02,27.04,14.41,0,111.4,12.98,26.86,116.2
"2016-07-12 00:40:30",1801450,4.689,158.2,2.436,0.288,24.37,110.4377,26.02,27.03,14.43,0,111.4,12.98,26.86,120.2
"2016-07-12 00:41:00",1801451,4.99,163.1,3.054,0.261,24.36,110.4371,26.02,27.03,14.4,0,111.4,12.98,26.86,125.1
"2016-07-12 00:41:30",1801452,5.15,165,2.638,0.195,24.31,110.4256,25.99,27.02,14.41,0,111.4,12.98,26.83,127.0
"2016-07-12 00:42:00",1801453,4.833,163.4,3.258,0.094,24.24,110.4133,25.96,27,14.39,0,111.4,12.98,26.80,125.4
"2016-07-12 00:42:30",1801454,4.605,159,2.713,0.14,24.18,110.4113,25.95,27.01,14.4,0,111.4,12.98,26.79,121.0
"2016-07-12 00:43:00",1801455,4.702,155.4,1.921,0.082,24.26,110.4066,25.94,26.99,14.4,0,111.4,12.98,26.78,117.4
"2016-07-12 00:43:30",1801456,4.821,155,1.346,0.094,24.24,110.4077,25.94,26.99,14.4,0,111.4,12.99,26.78,117.0
"2016-07-12 00:44:00",1801457,4.739,155.2,2.425,0.189,24.2,110.4085,25.94,26.99,14.39,0,111.4,12.99,26.79,117.2
"2016-07-12 00:44:30",1801458,4.999,149.5,3.307,0.193,24.06,110.4085,25.94,27,14.39,0,111.4,12.99,26.79,111.5
"2016-07-12 00:45:00",1801459,4.862,153.6,3.222,0.204,24.12,110.4102,25.95,26.99,14.4,0,111.4,12.99,26.79,115.6
"2016-07-12 00:45:30",1801460,4.784,156.3,2.214,0.109,24.19,110.413,25.96,26.98,14.39,0,111.4,12.99,26.80,118.3
"2016-07-12 00:46:00",1801461,5.11,152.4,1.54,0.08,23.95,110.4141,25.96,27,14.44,0,111.4,12.99,26.80,114.4
"2016-07-12 00:46:30",1801462,5.449,156.1,2.764,0.091,24.23,110.4231,25.98,26.99,14.49,0,111.4,12.99,26.82,118.1
"2016-07-12 00:47:00",1801463,5.728,155.5,1.831,0.148,24.13,110.4346,26.01,27,14.53,0,111.4,12.99,26.85,117.5
"2016-07-12 00:47:30",1801464,5.548,154.4,1.417,0.15,24.17,110.4377,26.02,26.99,14.48,0,111.4,12.99,26.86,116.4
"2016-07-12 00:48:00",1801465,5.314,155.6,1.047,0.142,24.29,110.4377,26.02,27.01,14.61,0,111.4,12.99,26.86,117.6
"2016-07-12 00:48:30",1801466,5.387,153.7,1.902,0.313,24.28,110.4377,26.02,27.03,14.73,0,111.4,12.99,26.86,115.7
"2016-07-12 00:49:00",1801467,5.181,153.9,2.173,0.183,24.18,110.4377,26.02,27.02,14.85,0,111.4,12.99,26.86,115.9
"2016-07-12 00:49:30",1801468,5.35,151.6,1.007,0.115,24.21,110.4377,26.02,27.04,14.52,0,111.4,12.99,26.86,113.6
"2016-07-12 00:50:00",1801469,6.077,156.8,1.795,0.191,24.23,110.4388,26.02,27.05,14.57,0,111.4,12.99,26.86,118.8
"2016-07-12 00:50:30",1801470,5.639,151.6,1.336,0.25,24.25,110.4428,26.03,27.04,14.48,0,111.4,12.99,26.88,113.6
"2016-07-12 00:51:00",1801471,5.307,153.5,0.979,0.108,24.23,110.447,26.04,27.06,14.38,0,111.4,12.99,26.89,115.5
"2016-07-12 00:51:30",1801472,5.155,155.1,1.579,0.074,24.14,110.4509,26.05,27.05,14.37,0,111.4,12.99,26.90,117.1
"2016-07-12 00:52:00",1801473,5.356,155.7,2.246,0.353,24.18,110.4523,26.06,27.08,14.46,0,111.4,12.99,26.90,117.7
"2016-07-12 00:52:30",1801474,5.697,157.6,1.43,0.122,24.17,110.4531,26.06,27.08,14.67,0,111.4,12.99,26.90,119.6
"2016-07-12 00:53:00",1801475,5.66,151.8,3.768,0.303,24.2,110.4512,26.05,27.08,14.91,0,111.4,12.99,26.90,113.8
"2016-07-12 00:53:30",1801476,5.643,151.6,4.847,0.211,24.22,110.4486,26.05,27.09,15.03,0,111.4,12.99,26.89,113.6
"2016-07-12 00:54:00",1801477,5.097,155.7,1.978,0.32,24.31,110.4501,26.05,27.08,15.23,0,111.4,12.99,26.89,117.7
"2016-07-12 00:54:30",1801478,4.972,155.9,3.357,0.301,24.21,110.4492,26.05,27.08,14.98,0,111.4,12.99,26.89,117.9
"2016-07-12 00:55:00",1801479,5.008,154.1,2.495,0.314,24.26,110.4498,26.05,27.09,15.19,0,111.4,12.99,26.89,116.1
"2016-07-12 00:55:30",1801480,5.174,158.4,1.458,0.131,24.22,110.4492,26.05,27.09,15.03,0,111.4,12.98,26.89,120.4
"2016-07-12 00:56:00",1801481,5.416,158.7,1.445,0.171,24.23,110.4501,26.05,27.11,15.09,0,111.4,12.98,26.89,120.7
"2016-07-12 00:56:30",1801482,5.362,156.7,1.289,0.134,24.26,110.4492,26.05,27.11,14.95,0,111.4,12.98,26.89,118.7
"2016-07-12 00:57:00",1801483,5.329,156.6,0.769,0.083,24.24,110.4484,26.05,27.1,14.93,0,111.4,12.98,26.89,118.6
"2016-07-12 00:57:30",1801484,5.261,158.7,1.721,0.085,24.23,110.4467,26.04,27.08,14.91,0,111.4,12.98,26.89,120.7
"2016-07-12 00:58:00",1801485,5.162,159.7,1.671,0.066,24.26,110.4447,26.04,27.1,14.71,0,111.4,12.98,26.88,121.7
"2016-07-12 00:58:30",1801486,5.121,158.7,1.466,0.1,24.22,110.4394,26.02,27.09,14.68,0,111.4,12.98,26.87,120.7
"2016-07-12 00:59:00",1801487,5.311,158.5,1.832,0.148,24.3,110.438,26.02,27.1,14.7,0,111.4,12.98,26.86,120.5
"2016-07-12 00:59:30",1801488,5.186,157.5,1.36,0.109,24.26,110.4377,26.02,27.09,14.61,0,111.4,12.98,26.86,119.5
"2016-07-12 01:00:00",1801489,4.949,159.3,1.925,0.255,24.27,110.4377,26.02,27.08,14.79,0,111.4,12.99,26.86,121.3
"2016-07-12 01:00:30",1801490,4.671,159.7,2.736,0.137,24.35,110.4377,26.02,27.07,14.75,0,111.4,12.99,26.86,121.7
"2016-07-12 01:01:00",1801491,5.138,159.3,4.305,0.127,24.22,110.4377,26.02,27.08,14.64,0,111.4,12.99,26.86,121.3
"2016-07-12 01:01:30",1801492,4.82,160.7,6.318,0.515,24.21,110.438,26.02,27.07,14.94,0,111.4,12.99,26.86,122.7
"2016-07-12 01:02:00",1801493,4.647,162,2.182,0.443,24.25,110.4377,26.02,27.06,15.27,0,111.4,12.99,26.86,124.0
"2016-07-12 01:02:30",1801494,5.214,162.3,2.138,0.137,24.34,110.4375,26.02,27.06,15.1,0,111.4,12.99,26.86,124.3
"2016-07-12 01:03:00",1801495,5.357,163.9,1.635,0.252,24.27,110.4378,26.02,27.05,15.03,0,111.4,12.99,26.86,125.9
"2016-07-12 01:03:30",1801496,4.823,162.4,2.682,0.257,24.29,110.431,26,27.05,15.53,0,111.4,12.99,26.84,124.4
"2016-07-12 01:04:00",1801497,4.625,165.7,2.438,0.194,24.29,110.4271,25.99,27.04,15.57,0,111.4,12.99,26.83,127.7
"2016-07-12 01:04:30",1801498,5.233,166.7,2.948,0.242,24.29,110.4221,25.98,27.05,15.51,0,111.4,12.99,26.82,128.7
"2016-07-12 01:05:00",1801499,5.217,162.7,1.527,0.121,24.24,110.4159,25.96,27.03,15.4,0,111.4,12.99,26.81,124.7
"2016-07-12 01:05:30",1801500,5.102,164.3,3.74,0.219,24.27,110.4084,25.94,27.03,15.54,0,111.4,12.99,26.79,126.3
"2016-07-12 01:06:00",1801501,4.683,164.1,1.925,0.198,24.22,110.4053,25.94,27.04,15.54,0,111.4,12.99,26.78,126.1
"2016-07-12 01:06:30",1801502,5.054,160,8.4,0.224,24.24,110.4074,25.94,27.02,16.05,0,111.4,12.99,26.78,122.0
"2016-07-12 01:07:00",1801503,5.379,162.4,1.646,0.162,24.24,110.405,25.94,27,15.49,0,111.4,12.99,26.78,124.4
"2016-07-12 01:07:30",1801504,5.654,161.3,1.592,0.198,24.25,110.4074,25.94,27,15.33,0,111.4,12.99,26.78,123.3
"2016-07-12 01:08:00",1801505,5.802,162.5,1.154,0.138,24.27,110.4066,25.94,27,15.24,0,111.4,12.99,26.78,124.5
"2016-07-12 01:08:30",1801506,5.878,159.9,2.353,0.218,24.28,110.3997,25.92,26.97,15.36,0,111.4,12.99,26.76,121.9
"2016-07-12 01:09:00",1801507,5.831,162.3,1.061,0.099,24.35,110.3861,25.89,26.97,15.16,0,111.4,12.99,26.73,124.3
"2016-07-12 01:09:30",1801508,5.902,162.7,0.856,0.053,24.35,110.3804,25.87,26.96,15.04,0,111.4,12.99,26.71,124.7
"2016-07-12 01:10:00",1801509,5.771,164.1,1.241,0.121,24.34,110.3781,25.87,26.95,15.05,0,111.4,12.99,26.71,126.1
"2016-07-12 01:10:30",1801510,5.521,165.2,2.088,0.133,24.3,110.3821,25.88,26.94,15.04,0,111.4,12.99,26.72,127.2
"2016-07-12 01:11:00",1801511,5.462,164.1,1.101,0.18,24.36,110.3815,25.87,26.92,15.04,0,111.4,12.99,26.72,126.1
"2016-07-12 01:11:30",1801512,5.698,161.2,2.199,0.125,24.31,110.3868,25.89,26.92,14.95,0,111.4,12.99,26.73,123.2
"2016-07-12 01:12:00",1801513,5.285,161,2.935,0.161,24.4,110.384,25.88,26.9,15.19,0,111.4,12.99,26.72,123.0
"2016-07-12 01:12:30",1801514,5.136,163.4,1.321,0.162,24.37,110.3804,25.87,26.89,14.93,0,111.4,12.99,26.71,125.4
"2016-07-12 01:13:00",1801515,5.264,164.3,1.65,0.158,24.42,110.3752,25.86,26.89,14.85,0,111.4,12.99,26.70,126.3
"2016-07-12 01:13:30",1801516,5.047,167.2,1.998,0.359,24.47,110.37,25.85,26.89,14.92,0,111.4,12.98,26.69,129.2
"2016-07-12 01:14:00",1801517,4.551,168.4,2.109,0.125,24.41,110.3653,25.83,26.88,15.03,0,111.4,12.98,26.68,130.4
"2016-07-12 01:14:30",1801518,4.444,166.5,3.52,0.143,24.33,110.3617,25.82,26.87,14.94,0,111.4,12.99,26.67,128.5
"2016-07-12 01:15:00",1801519,5.125,168.7,1.591,0.184,24.41,110.3582,25.82,26.86,14.76,0,111.4,12.98,26.66,130.7
"2016-07-12 01:15:30",1801520,5.395,169.7,1.559,0.144,24.48,110.361,25.82,26.86,14.7,0,111.4,12.98,26.66,131.7
"2016-07-12 01:16:00",1801521,5.568,163.8,2.733,0.2,24.32,110.3605,25.82,26.86,14.96,0,111.4,12.98,26.66,125.8
"2016-07-12 01:16:30",1801522,5.459,165.3,1.935,0.104,24.39,110.3593,25.82,26.85,15.17,0,111.4,12.98,26.66,127.3
"2016-07-12 01:17:00",1801523,5.74,165.2,1.519,0.111,24.34,110.3617,25.82,26.84,15.3,0,111.4,12.98,26.67,127.2
"2016-07-12 01:17:30",1801524,5.581,165.5,0.947,0.164,24.36,110.363,25.83,26.85,15.11,0,111.4,12.99,26.67,127.5
"2016-07-12 01:18:00",1801525,5.255,167.8,1.717,0.112,24.45,110.3643,25.83,26.84,15.27,0,111.4,12.99,26.67,129.8
"2016-07-12 01:18:30",1801526,5.539,168.7,0.606,0.337,24.45,110.3643,25.83,26.83,15.27,0,111.4,12.99,26.67,130.7
"2016-07-12 01:19:00",1801527,5.636,170,1.328,0.213,24.48,110.3643,25.83,26.84,15.14,0,111.4,12.99,26.67,132.0
"2016-07-12 01:19:30",1801528,5.626,167.2,0.923,0.145,24.39,110.3646,25.83,26.82,15.25,0,111.4,12.99,26.67,129.2
"2016-07-12 01:20:00",1801529,5.751,165.9,1.771,0.121,24.42,110.3649,25.83,26.82,15.32,0,111.4,12.99,26.67,127.9
"2016-07-12 01:20:30",1801530,5.9,165.6,0.96,0.087,24.5,110.3652,25.83,26.83,15.34,0,111.3,12.99,26.68,127.6
"2016-07-12 01:21:00",1801531,5.87,166.5,2.577,0.13,24.45,110.3658,25.83,26.81,15.37,0,111.4,12.99,26.68,128.5
"2016-07-12 01:21:30",1801532,5.6,169.2,2.263,0.096,24.46,110.3664,25.84,26.81,15.29,0,111.4,12.99,26.68,131.2
"2016-07-12 01:22:00",1801533,5.359,166.7,1.615,0.132,24.47,110.367,25.84,26.81,15.21,0,111.3,12.99,26.68,128.7
"2016-07-12 01:22:30",1801534,5.295,164.5,1.541,0.149,24.44,110.3638,25.83,26.81,15.25,0,111.4,12.99,26.67,126.5
"2016-07-12 01:23:00",1801535,5.733,165,2.425,0.261,24.43,110.3653,25.83,26.81,15.57,0,111.3,12.99,26.68,127.0
"2016-07-12 01:23:30",1801536,5.737,163.9,3.01,0.317,24.39,110.3582,25.82,26.79,15.57,0,111.4,12.99,26.66,125.9
"2016-07-12 01:24:00",1801537,6.128,164.4,1.637,0.167,24.41,110.354,25.8,26.81,15.46,0,111.4,12.99,26.65,126.4
"2016-07-12 01:24:30",1801538,6.138,165.6,2.138,0.096,24.42,110.3467,25.79,26.78,15.38,0,111.4,12.99,26.63,127.6
"2016-07-12 01:25:00",1801539,5.951,166.7,1.722,0.247,24.45,110.3424,25.77,26.78,15.35,0,111.3,12.99,26.62,128.7
"2016-07-12 01:25:30",1801540,5.924,168.4,1.629,0.104,24.55,110.3393,25.77,26.78,15.36,0,111.3,12.99,26.61,130.4
"2016-07-12 01:26:00",1801541,5.856,171.7,0.859,0.119,24.53,110.3349,25.76,26.76,15.31,0,111.4,12.99,26.60,133.7
"2016-07-12 01:26:30",1801542,5.706,170.2,0.97,0.138,24.49,110.3362,25.76,26.76,15.42,0,111.3,12.99,26.60,132.2
"2016-07-12 01:27:00",1801543,5.578,168.1,1.364,0.15,24.45,110.3392,25.77,26.76,15.45,0,111.3,13,26.61,130.1
"2016-07-12 01:27:30",1801544,5.462,167.8,1.501,0.11,24.47,110.3377,25.76,26.75,15.53,0,111.4,12.99,26.60,129.8
"2016-07-12 01:28:00",1801545,5.562,164.5,1.814,0.193,24.45,110.3396,25.77,26.76,15.44,0,111.3,13,26.61,126.5
"2016-07-12 01:28:30",1801546,5.004,163.3,0.758,0.211,24.33,110.3387,25.76,26.75,15.38,0,111.3,13,26.61,125.3
"2016-07-12 01:29:00",1801547,4.773,164.7,1.412,0.119,24.45,110.3384,25.76,26.73,15.36,0,111.3,13,26.61,126.7
"2016-07-12 01:29:30",1801548,5.104,162.9,0.947,0.125,24.4,110.3365,25.76,26.73,15.46,0,111.3,12.99,26.60,124.9
"2016-07-12 01:30:00",1801549,4.941,166.4,1.443,0.146,24.42,110.332,25.75,26.74,15.57,0,111.3,12.99,26.59,128.4
"2016-07-12 01:30:30",1801550,4.931,169.3,0.583,0.129,24.46,110.3318,25.75,26.72,15.63,0,111.3,12.99,26.59,131.3
"2016-07-12 01:31:00",1801551,4.721,167.7,1.007,0.048,24.52,110.3292,25.74,26.71,15.77,0,111.3,12.99,26.58,129.7
"2016-07-12 01:31:30",1801552,4.543,166.9,0.944,0.072,24.45,110.3287,25.74,26.71,15.82,0,111.3,12.99,26.58,128.9
"2016-07-12 01:32:00",1801553,4.342,165.9,0.92,0.083,24.31,110.3278,25.74,26.7,15.8,0,111.3,12.99,26.58,127.9
"2016-07-12 01:32:30",1801554,4.545,165.8,1.447,0.123,24.39,110.3242,25.73,26.69,15.76,0,111.3,12.99,26.57,127.8
"2016-07-12 01:33:00",1801555,4.801,163.6,1.494,0.198,24.39,110.3169,25.71,26.7,15.65,0,111.3,12.99,26.55,125.6
"2016-07-12 01:33:30",1801556,5.003,163,0.615,0.162,24.42,110.3118,25.7,26.71,15.6,0,111.3,12.99,26.54,125.0
"2016-07-12 01:34:00",1801557,4.585,163.5,1.113,0.116,24.43,110.3085,25.69,26.69,15.5,0,111.3,12.99,26.53,125.5
"2016-07-12 01:34:30",1801558,4.454,163,1.881,0.195,24.43,110.3068,25.68,26.69,15.44,0,111.3,12.99,26.52,125.0
"2016-07-12 01:35:00",1801559,4.615,165.4,1.543,0.118,24.43,110.3065,25.68,26.7,15.58,0,111.3,12.99,26.52,127.4
"2016-07-12 01:35:30",1801560,4.472,164.8,1.72,0.183,24.38,110.3065,25.68,26.68,15.66,0,111.3,12.99,26.52,126.8
"2016-07-12 01:36:00",1801561,4.665,166,1.173,0.132,24.44,110.3065,25.68,26.69,15.8,0,111.3,12.99,26.52,128.0
"2016-07-12 01:36:30",1801562,4.918,165.2,1.941,0.184,24.43,110.3065,25.68,26.69,15.82,0,111.3,12.99,26.52,127.2
"2016-07-12 01:37:00",1801563,4.875,162.7,1.41,0.086,24.41,110.3065,25.68,26.69,15.83,0,111.3,13,26.52,124.7
"2016-07-12 01:37:30",1801564,4.714,160.7,1.225,0.157,24.44,110.3065,25.68,26.68,15.82,0,111.3,12.99,26.52,122.7
"2016-07-12 01:38:00",1801565,4.401,161.5,2.256,0.179,24.38,110.3065,25.68,26.68,15.96,0,111.3,12.99,26.52,123.5
"2016-07-12 01:38:30",1801566,4.438,162.7,1.664,0.201,24.35,110.3065,25.68,26.67,16.11,0,111.3,12.99,26.52,124.7
"2016-07-12 01:39:00",1801567,3.681,163.8,1.21,0.239,24.46,110.3065,25.68,26.67,16,0,111.3,13,26.52,125.8
"2016-07-12 01:39:30",1801568,3.948,165.1,2.099,0.202,24.42,110.3065,25.68,26.67,16.04,0,111.3,12.99,26.52,127.1
"2016-07-12 01:40:00",1801569,4.159,166.4,1.688,0.181,24.47,110.3065,25.68,26.67,15.98,0,111.3,13,26.52,128.4
"2016-07-12 01:40:30",1801570,4.444,162.9,2.105,0.228,24.45,110.3065,25.68,26.66,15.93,0,111.3,12.99,26.52,124.9
"2016-07-12 01:41:00",1801571,4.036,162.5,0.918,0.167,24.42,110.3045,25.68,26.66,15.9,0,111.3,13,26.52,124.5
"2016-07-12 01:41:30",1801572,4.216,161.3,2.514,0.134,24.37,110.2986,25.66,26.65,15.93,0,111.3,12.99,26.50,123.3
"2016-07-12 01:42:00",1801573,4.223,155.9,2.863,0.074,24.41,110.2955,25.65,26.67,15.84,0,111.3,13,26.50,117.9
"2016-07-12 01:42:30",1801574,4.256,152.2,2.107,0.129,24.43,110.2905,25.64,26.66,15.78,0,111.3,13,26.48,114.2
"2016-07-12 01:43:00",1801575,4.495,155.7,3.59,0.229,24.44,110.2913,25.64,26.66,15.89,0,111.3,13,26.48,117.7
"2016-07-12 01:43:30",1801576,4.604,154.7,2.919,0.093,24.43,110.2922,25.65,26.65,15.99,0,111.3,12.99,26.49,116.7
"2016-07-12 01:44:00",1801577,4.192,154.4,2.602,0.092,24.42,110.293,25.65,26.65,16.07,0,111.3,13,26.49,116.4
"2016-07-12 01:44:30",1801578,4.142,153.1,3.767,0.118,24.44,110.2916,25.64,26.64,15.96,0,111.3,12.99,26.49,115.1
"2016-07-12 01:45:00",1801579,3.937,156.3,2.128,0.211,24.45,110.2922,25.65,26.64,15.93,0,111.3,13,26.49,118.3
"2016-07-12 01:45:30",1801580,4.32,156.3,1.416,0.193,24.43,110.2933,25.65,26.64,15.94,0,111.3,13,26.49,118.3
"2016-07-12 01:46:00",1801581,4.403,157.5,1.521,0.201,24.43,110.2891,25.64,26.65,15.84,0,111.3,13,26.48,119.5
"2016-07-12 01:46:30",1801582,4.464,155.3,2.08,0.148,24.42,110.2891,25.64,26.64,15.82,0,111.3,13,26.48,117.3